^^
Datos históricos de la estación: Murcia-Puente Tocinos
Diario Informe para Agosto 30, 2019 Unidades:  Métrico    Inglés   Ambas
Diario Semanal Mensual Anual Configurable
  Máximo: Mínimo: Media:
Temperatura: 31.9 °C 21.9 °C 26.5 °C
Punto de rocio: 20.1 °C 15.6 °C 18.6 °C
Humedad: 82% 39% 64%
Velocidad viento: 16.1km/h 0.0km/h 6.3km/h
Racha viento: 29.0km/h - -
Viento- - SE
Presión: 1018.6 hPa 1015.5 hPa -
Precipitación: 0.0 mm    
Historical Graphs
 
 
Tabla de datos para Agosto 30, 2019
Hora Temperatura Punto de rocio Presión Viento Velocidad viento Racha viento Humedad Intensidad lluvia(por hora) Nubes
00:00 24.4 °C 19.7 °C 1018.0 hPa NNW 1.6 km/h 4.8 km/h 75% 0.0 mm CLR
00:05 24.4 °C 19.7 °C 1018.1 hPa NNW 1.6 km/h 6.4 km/h 75% 0.0 mm CLR
00:10 24.4 °C 19.7 °C 1018.1 hPa North 3.2 km/h 8.0 km/h 75% 0.0 mm CLR
00:15 24.4 °C 19.7 °C 1018.1 hPa NE 3.2 km/h 8.0 km/h 75% 0.0 mm CLR
00:20 24.4 °C 19.7 °C 1018.1 hPa NE 3.2 km/h 8.0 km/h 75% 0.0 mm CLR
00:25 24.4 °C 19.9 °C 1018.1 hPa NE 3.2 km/h 8.0 km/h 76% 0.0 mm CLR
00:30 24.4 °C 19.9 °C 1018.1 hPa NE 3.2 km/h 6.4 km/h 76% 0.0 mm CLR
00:35 24.4 °C 19.9 °C 1018.1 hPa NE 3.2 km/h 3.2 km/h 76% 0.0 mm CLR
00:40 24.3 °C 19.8 °C 1018.1 hPa NE 3.2 km/h 8.0 km/h 76% 0.0 mm CLR
00:45 24.3 °C 19.8 °C 1018.1 hPa NE 3.2 km/h 8.0 km/h 76% 0.0 mm CLR
00:50 24.2 °C 19.7 °C 1018.0 hPa NE 3.2 km/h 6.4 km/h 76% 0.0 mm CLR
00:55 24.2 °C 19.9 °C 1018.0 hPa NE 3.2 km/h 8.0 km/h 77% 0.0 mm CLR
01:00 24.2 °C 19.9 °C 1018.0 hPa NE 3.2 km/h 8.0 km/h 77% 0.0 mm CLR
01:05 24.1 °C 19.8 °C 1018.0 hPa NE 3.2 km/h 6.4 km/h 77% 0.0 mm CLR
01:10 24.1 °C 19.8 °C 1018.0 hPa NE 3.2 km/h 8.0 km/h 77% 0.0 mm CLR
01:15 24.0 °C 19.9 °C 1018.0 hPa NE 3.2 km/h 8.0 km/h 78% 0.0 mm CLR
01:20 23.9 °C 19.8 °C 1018.0 hPa NE 3.2 km/h 8.0 km/h 78% 0.0 mm CLR
01:25 23.8 °C 19.7 °C 1018.0 hPa NE 3.2 km/h 8.0 km/h 78% 0.0 mm CLR
01:30 23.8 °C 19.7 °C 1018.0 hPa ENE 3.2 km/h 6.4 km/h 78% 0.0 mm CLR
01:35 23.8 °C 19.9 °C 1018.1 hPa East 3.2 km/h 4.8 km/h 79% 0.0 mm CLR
01:40 23.8 °C 19.9 °C 1018.1 hPa South 2.9 km/h 5.6 km/h 79% 0.0 mm CLR
01:45 23.7 °C 20.1 °C 1018.1 hPa South 3.2 km/h 4.8 km/h 80% 0.0 mm CLR
01:50 23.7 °C 20.1 °C 1018.2 hPa South 1.6 km/h 6.4 km/h 80% 0.0 mm CLR
01:55 23.6 °C 19.9 °C 1018.2 hPa SW 1.6 km/h 8.0 km/h 80% 0.0 mm CLR
02:00 23.5 °C 19.8 °C 1018.2 hPa WSW 3.2 km/h 8.0 km/h 80% 0.0 mm CLR
02:05 23.4 °C 19.8 °C 1018.2 hPa WSW 3.2 km/h 4.8 km/h 80% 0.0 mm CLR
02:10 23.4 °C 19.8 °C 1018.2 hPa WSW 1.6 km/h 3.2 km/h 80% 0.0 mm CLR
02:15 23.4 °C 19.8 °C 1018.2 hPa WSW 1.6 km/h   80% 0.0 mm CLR
02:20 23.4 °C 19.8 °C 1018.1 hPa Calm     80% 0.0 mm CLR
02:25 23.3 °C 19.7 °C 1018.1 hPa Calm   8.0 km/h 80% 0.0 mm CLR
02:30 23.3 °C 19.8 °C 1018.1 hPa ENE 3.2 km/h 8.0 km/h 81% 0.0 mm CLR
02:35 23.3 °C 19.8 °C 1018.0 hPa East 3.2 km/h   81% 0.0 mm CLR
02:40 23.3 °C 20.1 °C 1018.0 hPa Calm     82% 0.0 mm CLR
02:45 23.3 °C 20.1 °C 1018.0 hPa Calm   4.8 km/h 82% 0.0 mm CLR
02:50 23.3 °C 20.1 °C 1017.9 hPa Calm   4.8 km/h 82% 0.0 mm CLR
02:55 23.3 °C 20.1 °C 1017.9 hPa Calm     82% 0.0 mm CLR
03:00 23.2 °C 19.9 °C 1017.9 hPa Calm     82% 0.0 mm CLR
03:05 23.2 °C 19.9 °C 1017.9 hPa Calm     82% 0.0 mm CLR
03:10 23.2 °C 19.9 °C 1017.9 hPa Calm     82% 0.0 mm CLR
03:15 23.2 °C 19.8 °C 1017.9 hPa Calm     81% 0.0 mm CLR
03:20 23.3 °C 19.8 °C 1017.9 hPa Calm     81% 0.0 mm CLR
03:25 23.3 °C 19.8 °C 1017.9 hPa Calm   8.0 km/h 81% 0.0 mm CLR
03:30 23.3 °C 19.8 °C 1017.9 hPa SSE 1.6 km/h 4.8 km/h 81% 0.0 mm CLR
03:35 23.3 °C 19.8 °C 1017.9 hPa South 1.6 km/h 3.2 km/h 81% 0.0 mm CLR
03:40 23.3 °C 19.7 °C 1017.9 hPa South 1.6 km/h 6.4 km/h 80% 0.0 mm CLR
03:45 23.3 °C 19.7 °C 1017.9 hPa SSE 1.6 km/h 8.0 km/h 80% 0.0 mm CLR
03:50 23.3 °C 19.7 °C 1017.7 hPa SSE 3.2 km/h 6.4 km/h 80% 0.0 mm CLR
03:55 23.3 °C 19.7 °C 1017.7 hPa SSE 3.2 km/h 3.2 km/h 80% 0.0 mm CLR
04:00 23.2 °C 19.8 °C 1017.7 hPa Calm   4.8 km/h 81% 0.0 mm CLR
04:05 23.2 °C 19.6 °C 1017.6 hPa Calm   6.4 km/h 80% 0.0 mm CLR
04:10 23.2 °C 19.6 °C 1017.6 hPa SSE 3.2 km/h 4.8 km/h 80% 0.0 mm CLR
04:15 23.2 °C 19.6 °C 1017.6 hPa SSE 3.2 km/h 3.2 km/h 80% 0.0 mm CLR
04:20 23.2 °C 19.6 °C 1017.6 hPa SSE 1.6 km/h 4.8 km/h 80% 0.0 mm CLR
04:25 23.1 °C 19.7 °C 1017.6 hPa SSE 2.3 km/h   81% 0.0 mm CLR
04:30 23.0 °C 19.6 °C 1017.6 hPa Calm     81% 0.0 mm CLR
04:35 22.8 °C 19.2 °C 1017.5 hPa Calm   3.7 km/h 80% 0.0 mm CLR
04:40 22.7 °C 19.1 °C 1017.5 hPa SSE 3.2 km/h 6.4 km/h 80% 0.0 mm CLR
04:45 22.6 °C 19.2 °C 1017.5 hPa SSE 3.2 km/h   81% 0.0 mm CLR
04:50 22.6 °C 19.2 °C 1017.5 hPa Calm   3.2 km/h 81% 0.0 mm CLR
04:55 22.6 °C 19.2 °C 1017.5 hPa Calm   3.2 km/h 81% 0.0 mm CLR
05:00 22.5 °C 19.1 °C 1017.5 hPa Calm     81% 0.0 mm CLR
05:05 22.5 °C 19.1 °C 1017.5 hPa Calm   3.2 km/h 81% 0.0 mm CLR
05:10 22.4 °C 19.0 °C 1017.5 hPa Calm     81% 0.0 mm CLR
05:15 22.5 °C 19.1 °C 1017.5 hPa Calm     81% 0.0 mm CLR
05:20 22.6 °C 19.2 °C 1017.5 hPa Calm     81% 0.0 mm CLR
05:25 22.5 °C 18.9 °C 1017.5 hPa Calm     80% 0.0 mm CLR
05:30 22.4 °C 18.8 °C 1017.5 hPa SSE 1.6 km/h 8.0 km/h 80% 0.0 mm CLR
05:35 22.4 °C 19.0 °C 1017.5 hPa SE 1.6 km/h 8.0 km/h 81% 0.0 mm CLR
05:40 22.3 °C 18.9 °C 1017.5 hPa SE 3.2 km/h 4.8 km/h 81% 0.0 mm CLR
05:45 22.3 °C 18.9 °C 1017.5 hPa SE 3.2 km/h 6.4 km/h 81% 0.0 mm CLR
05:50 22.3 °C 19.1 °C 1017.5 hPa SSE 1.6 km/h 3.2 km/h 82% 0.0 mm CLR
05:55 22.3 °C 19.1 °C 1017.5 hPa SSE 1.6 km/h   82% 0.0 mm CLR
06:00 22.3 °C 19.1 °C 1017.5 hPa Calm     82% 0.0 mm CLR
06:05 22.4 °C 19.2 °C 1017.6 hPa Calm   3.2 km/h 82% 0.0 mm CLR
06:10 22.4 °C 19.2 °C 1017.6 hPa Calm   4.8 km/h 82% 0.0 mm CLR
06:15 22.3 °C 19.1 °C 1017.6 hPa Calm   4.8 km/h 82% 0.0 mm CLR
06:20 22.3 °C 19.1 °C 1017.4 hPa SSE 1.6 km/h 6.4 km/h 82% 0.0 mm CLR
06:25 22.3 °C 19.1 °C 1017.4 hPa South 1.6 km/h 4.8 km/h 82% 0.0 mm CLR
06:30 22.3 °C 19.1 °C 1017.4 hPa South 3.2 km/h 6.4 km/h 82% 0.0 mm CLR
06:35 22.3 °C 19.1 °C 1017.4 hPa South 3.2 km/h 8.0 km/h 82% 0.0 mm CLR
06:40 22.2 °C 18.8 °C 1017.4 hPa South 3.2 km/h 11.3 km/h 81% 0.0 mm CLR
06:45 22.2 °C 18.6 °C 1017.4 hPa SSW 3.2 km/h 11.3 km/h 80% 0.0 mm CLR
06:50 22.2 °C 18.6 °C 1017.6 hPa SSW 8.0 km/h 9.7 km/h 80% 0.0 mm CLR
06:55 22.2 °C 18.6 °C 1017.6 hPa SW 8.0 km/h 9.7 km/h 80% 0.0 mm CLR
07:00 22.2 °C 18.6 °C 1017.6 hPa SW 4.8 km/h 9.7 km/h 80% 0.0 mm CLR
07:05 22.2 °C 18.6 °C 1017.9 hPa WSW 4.8 km/h 9.7 km/h 80% 0.0 mm CLR
07:10 22.1 °C 18.5 °C 1017.9 hPa WSW 4.8 km/h 8.0 km/h 80% 0.0 mm CLR
07:15 22.1 °C 18.5 °C 1017.9 hPa WSW 4.8 km/h 8.0 km/h 80% 0.0 mm CLR
07:20 22.1 °C 18.5 °C 1017.9 hPa WSW 1.6 km/h 6.4 km/h 80% 0.0 mm CLR
07:25 22.1 °C 18.5 °C 1017.9 hPa WSW 1.6 km/h 8.0 km/h 80% 0.0 mm CLR
07:30 22.1 °C 18.5 °C 1017.9 hPa SW 3.2 km/h 8.0 km/h 80% 0.0 mm CLR
07:35 22.1 °C 18.5 °C 1018.1 hPa South 3.2 km/h 8.0 km/h 80% 0.0 mm CLR
07:40 22.1 °C 18.5 °C 1018.1 hPa SSE 3.2 km/h 8.0 km/h 80% 0.0 mm CLR
07:45 22.1 °C 18.5 °C 1018.1 hPa SSE 4.7 km/h 9.5 km/h 80% 0.0 mm CLR
07:50 21.9 °C 18.5 °C 1018.2 hPa SSE 8.0 km/h 9.7 km/h 81% 0.0 mm CLR
07:55 21.9 °C 18.5 °C 1018.2 hPa South 8.0 km/h 9.7 km/h 81% 0.0 mm CLR
08:00 21.9 °C 18.3 °C 1018.2 hPa South 8.0 km/h 9.7 km/h 80% 0.0 mm CLR
08:05 21.9 °C 18.3 °C 1018.3 hPa South 8.0 km/h 9.7 km/h 80% 0.0 mm CLR
08:10 21.9 °C 18.1 °C 1018.3 hPa SSW 4.8 km/h 9.7 km/h 79% 0.0 mm CLR
08:15 22.1 °C 18.1 °C 1018.3 hPa SW 4.8 km/h 8.0 km/h 78% 0.0 mm CLR
08:20 22.2 °C 18.2 °C 1018.3 hPa WSW 4.8 km/h 8.0 km/h 78% 0.0 mm CLR
08:25 22.2 °C 18.0 °C 1018.3 hPa SW 4.8 km/h 9.7 km/h 77% 0.0 mm CLR
08:30 22.4 °C 18.2 °C 1018.3 hPa WSW 4.8 km/h 11.3 km/h 77% 0.0 mm CLR
08:35 22.4 °C 18.2 °C 1018.3 hPa WSW 4.8 km/h 8.0 km/h 77% 0.0 mm CLR
08:40 22.6 °C 18.2 °C 1018.3 hPa WSW 4.8 km/h 9.7 km/h 76% 0.0 mm CLR
08:45 22.7 °C 18.1 °C 1018.3 hPa WSW 4.8 km/h 9.7 km/h 75% 0.0 mm CLR
08:50 22.7 °C 17.6 °C 1018.5 hPa SW 4.8 km/h 9.7 km/h 73% 0.0 mm CLR
08:55 22.8 °C 17.3 °C 1018.5 hPa WSW 5.0 km/h 9.3 km/h 71% 0.0 mm CLR
09:00 22.8 °C 17.5 °C 1018.5 hPa WSW 4.8 km/h 9.7 km/h 72% 0.0 mm CLR
09:05 23.0 °C 17.4 °C 1018.6 hPa WSW 4.8 km/h 8.0 km/h 71% 0.0 mm CLR
09:10 23.1 °C 17.6 °C 1018.6 hPa West 4.8 km/h 8.0 km/h 71% 0.0 mm CLR
09:15 23.3 °C 17.5 °C 1018.6 hPa WSW 4.8 km/h 8.0 km/h 70% 0.0 mm CLR
09:20 23.4 °C 17.6 °C 1018.6 hPa SW 3.2 km/h 8.0 km/h 70% 0.0 mm CLR
09:25 23.6 °C 17.6 °C 1018.6 hPa SSW 3.2 km/h 9.7 km/h 69% 0.0 mm CLR
09:30 23.8 °C 17.8 °C 1018.6 hPa South 4.8 km/h 9.7 km/h 69% 0.0 mm CLR
09:35 23.9 °C 17.6 °C 1018.6 hPa SSW 4.8 km/h 9.7 km/h 68% 0.0 mm CLR
09:40 23.8 °C 17.6 °C 1018.6 hPa SSW 4.8 km/h 9.7 km/h 68% 0.0 mm CLR
09:45 23.9 °C 17.9 °C 1018.6 hPa SSW 4.8 km/h 8.0 km/h 69% 0.0 mm CLR
09:50 24.1 °C 17.8 °C 1018.5 hPa SSW 4.8 km/h 9.7 km/h 68% 0.0 mm CLR
09:55 24.1 °C 17.8 °C 1018.5 hPa SSW 4.8 km/h 9.7 km/h 68% 0.0 mm CLR
10:00 24.3 °C 17.6 °C 1018.5 hPa SSW 3.2 km/h 9.7 km/h 66% 0.0 mm CLR
10:05 24.6 °C 17.8 °C 1018.4 hPa SW 3.2 km/h 9.7 km/h 66% 0.0 mm CLR
10:10 24.7 °C 17.9 °C 1018.4 hPa SW 4.8 km/h 9.7 km/h 66% 0.0 mm CLR
10:15 24.9 °C 17.9 °C 1018.4 hPa SSW 4.8 km/h 11.3 km/h 65% 0.0 mm CLR
10:20 25.0 °C 18.0 °C 1018.5 hPa SSW 8.0 km/h 12.9 km/h 65% 0.0 mm CLR
10:25 25.1 °C 18.1 °C 1018.5 hPa SW 8.0 km/h 11.3 km/h 65% 0.0 mm CLR
10:30 25.2 °C 18.2 °C 1018.5 hPa SSW 8.0 km/h 12.9 km/h 65% 0.0 mm CLR
10:35 25.2 °C 17.9 °C 1018.6 hPa SSW 8.0 km/h 11.3 km/h 64% 0.0 mm CLR
10:40 25.4 °C 18.1 °C 1018.6 hPa SSW 8.0 km/h 16.1 km/h 64% 0.0 mm CLR
10:45 25.6 °C 18.3 °C 1018.6 hPa South 8.0 km/h 11.3 km/h 64% 0.0 mm CLR
10:50 25.7 °C 18.4 °C 1018.5 hPa SSW 8.0 km/h 11.3 km/h 64% 0.0 mm CLR
10:55 25.9 °C 18.3 °C 1018.5 hPa SSW 8.0 km/h 9.7 km/h 63% 0.0 mm CLR
11:00 26.2 °C 18.3 °C 1018.5 hPa SSW 3.2 km/h 9.7 km/h 62% 0.0 mm CLR
11:05 26.2 °C 18.1 °C 1018.5 hPa SW 3.2 km/h 11.3 km/h 61% 0.0 mm CLR
11:10 26.4 °C 18.3 °C 1018.5 hPa West 4.8 km/h 12.9 km/h 61% 0.0 mm CLR
11:15 26.7 °C 18.3 °C 1018.5 hPa West 4.8 km/h 9.7 km/h 60% 0.0 mm CLR
11:20 26.9 °C 18.2 °C 1018.6 hPa SSW 3.9 km/h 3.7 km/h 59% 0.0 mm CLR
11:25 27.1 °C 18.2 °C 1018.6 hPa SW 3.2 km/h 9.7 km/h 58% 0.0 mm CLR
11:30 27.2 °C 17.9 °C 1018.6 hPa WSW 4.8 km/h 9.7 km/h 57% 0.0 mm CLR
11:35 27.3 °C 18.1 °C 1018.5 hPa SW 4.8 km/h 8.0 km/h 57% 0.0 mm CLR
11:40 27.6 °C 17.8 °C 1018.5 hPa South 3.2 km/h 8.0 km/h 55% 0.0 mm CLR
11:45 27.9 °C 18.0 °C 1018.5 hPa NE 3.2 km/h 8.0 km/h 55% 0.0 mm CLR
11:50 28.3 °C 18.3 °C 1018.3 hPa NNE 3.2 km/h 4.8 km/h 55% 0.0 mm CLR
11:55 28.6 °C 18.1 °C 1018.3 hPa North 3.2 km/h 8.0 km/h 53% 0.0 mm CLR
12:00 28.8 °C 18.3 °C 1018.3 hPa NW 3.2 km/h 8.0 km/h 53% 0.0 mm CLR
12:05 28.7 °C 18.2 °C 1018.2 hPa West 3.2 km/h 9.7 km/h 53% 0.0 mm CLR
12:10 28.7 °C 18.2 °C 1018.2 hPa NW 3.2 km/h 8.0 km/h 53% 0.0 mm CLR
12:15 29.1 °C 17.6 °C 1018.2 hPa NE 3.2 km/h 9.7 km/h 50% 0.0 mm CLR
12:20 29.2 °C 17.4 °C 1018.1 hPa ESE 3.2 km/h 8.0 km/h 49% 0.0 mm CLR
12:25 29.4 °C 17.6 °C 1018.1 hPa East 3.2 km/h 9.7 km/h 49% 0.0 mm CLR
12:30 29.6 °C 17.8 °C 1018.1 hPa NNW 3.2 km/h 11.3 km/h 49% 0.0 mm CLR
12:35 29.8 °C 17.9 °C 1018.1 hPa NNE 3.2 km/h 9.7 km/h 49% 0.0 mm CLR
12:40 30.1 °C 17.8 °C 1018.1 hPa ENE 3.2 km/h 8.0 km/h 48% 0.0 mm CLR
12:45 30.2 °C 18.7 °C 1018.1 hPa ENE 3.2 km/h 12.9 km/h 50% 0.0 mm CLR
12:50 30.3 °C 18.7 °C 1017.9 hPa ENE 4.8 km/h 14.5 km/h 50% 0.0 mm CLR
12:55 30.1 °C 18.8 °C 1017.9 hPa ENE 4.8 km/h 14.5 km/h 51% 0.0 mm CLR
13:00 30.2 °C 18.9 °C 1017.9 hPa ENE 8.0 km/h 12.9 km/h 51% 0.0 mm CLR
13:05 30.3 °C 18.7 °C 1017.8 hPa ENE 8.0 km/h 20.9 km/h 50% 0.0 mm CLR
13:10 30.0 °C 18.8 °C 1017.8 hPa ENE 9.7 km/h 14.5 km/h 51% 0.0 mm CLR
13:15 30.1 °C 18.6 °C 1017.8 hPa NE 9.7 km/h 16.1 km/h 50% 0.0 mm CLR
13:20 30.3 °C 18.4 °C 1017.7 hPa NE 9.7 km/h 19.3 km/h 49% 0.0 mm CLR
13:25 30.3 °C 18.4 °C 1017.7 hPa NE 9.7 km/h 16.1 km/h 49% 0.0 mm CLR
13:30 30.6 °C 18.3 °C 1017.7 hPa NE 8.0 km/h 12.9 km/h 48% 0.0 mm CLR
13:35 30.9 °C 18.3 °C 1017.5 hPa NE 8.0 km/h 12.9 km/h 47% 0.0 mm CLR
13:40 30.9 °C 18.3 °C 1017.5 hPa ENE 8.0 km/h 14.5 km/h 47% 0.0 mm CLR
13:45 30.9 °C 18.3 °C 1017.5 hPa East 8.0 km/h 14.5 km/h 47% 0.0 mm CLR
13:50 31.2 °C 18.6 °C 1017.3 hPa ENE 9.7 km/h 17.7 km/h 47% 0.0 mm CLR
13:55 31.3 °C 18.3 °C 1017.3 hPa ENE 9.7 km/h 12.9 km/h 46% 0.0 mm CLR
14:00 31.5 °C 18.8 °C 1017.3 hPa ENE 8.0 km/h 19.3 km/h 47% 0.0 mm CLR
14:05 31.3 °C 18.7 °C 1017.1 hPa NE 8.0 km/h 25.7 km/h 47% 0.0 mm CLR
14:10 31.3 °C 18.7 °C 1017.1 hPa NE 11.3 km/h 19.3 km/h 47% 0.0 mm CLR
14:15 31.4 °C 18.7 °C 1017.1 hPa NE 11.3 km/h 17.7 km/h 47% 0.0 mm CLR
14:20 31.7 °C 18.3 °C 1017.0 hPa ENE 9.7 km/h 20.9 km/h 45% 0.0 mm CLR
14:25 31.7 °C 18.3 °C 1017.0 hPa East 9.7 km/h 19.3 km/h 45% 0.0 mm CLR
14:30 31.8 °C 18.1 °C 1017.0 hPa East 9.7 km/h 17.7 km/h 44% 0.0 mm CLR
14:35 31.8 °C 18.1 °C 1016.9 hPa East 9.7 km/h 16.1 km/h 44% 0.0 mm CLR
14:40 31.9 °C 18.1 °C 1016.9 hPa ESE 9.7 km/h 20.9 km/h 44% 0.0 mm CLR
14:45 31.9 °C 18.1 °C 1016.9 hPa SE 9.7 km/h 19.3 km/h 44% 0.0 mm CLR
14:50 31.9 °C 18.1 °C 1016.7 hPa SE 9.7 km/h 16.1 km/h 44% 0.0 mm CLR
14:55 31.8 °C 18.8 °C 1016.7 hPa SE 9.7 km/h 20.9 km/h 46% 0.0 mm CLR
15:00 31.8 °C 19.4 °C 1016.7 hPa ESE 12.9 km/h 24.1 km/h 48% 0.0 mm CLR
15:05 31.7 °C 19.0 °C 1016.6 hPa SE 12.9 km/h 22.5 km/h 47% 0.0 mm CLR
15:10 31.7 °C 19.3 °C 1016.6 hPa SE 13.0 km/h 16.7 km/h 48% 0.0 mm CLR
15:15 31.7 °C 18.9 °C 1016.6 hPa SE 12.9 km/h 29.0 km/h 47% 0.0 mm CLR
15:20 31.4 °C 18.7 °C 1016.6 hPa SE 14.5 km/h 22.5 km/h 47% 0.0 mm CLR
15:25 31.5 °C 18.5 °C 1016.6 hPa SE 14.5 km/h 27.4 km/h 46% 0.0 mm CLR
15:30 31.6 °C 18.2 °C 1016.6 hPa SE 14.5 km/h 24.1 km/h 45% 0.0 mm CLR
15:35 31.7 °C 18.3 °C 1016.4 hPa SE 14.5 km/h 27.4 km/h 45% 0.0 mm CLR
15:40 31.7 °C 18.3 °C 1016.4 hPa SE 14.5 km/h 24.1 km/h 45% 0.0 mm CLR
15:45 31.7 °C 17.9 °C 1016.4 hPa SE 14.5 km/h 25.7 km/h 44% 0.0 mm CLR
15:50 31.7 °C 17.6 °C 1016.4 hPa SE 14.5 km/h 27.4 km/h 43% 0.0 mm CLR
15:55 31.7 °C 17.2 °C 1016.4 hPa SE 14.5 km/h 27.4 km/h 42% 0.0 mm CLR
16:00 31.6 °C 17.1 °C 1016.4 hPa SE 16.1 km/h 27.4 km/h 42% 0.0 mm CLR
16:05 31.3 °C 16.8 °C 1016.1 hPa SE 16.1 km/h 27.4 km/h 42% 0.0 mm CLR
16:10 31.6 °C 17.1 °C 1016.1 hPa SE 16.1 km/h 24.1 km/h 42% 0.0 mm CLR
16:15 31.5 °C 17.4 °C 1016.1 hPa SE 16.1 km/h 24.1 km/h 43% 0.0 mm CLR
16:20 31.6 °C 17.8 °C 1015.9 hPa SE 14.5 km/h 24.1 km/h 44% 0.0 mm CLR
16:25 31.6 °C 17.8 °C 1015.9 hPa SE 14.5 km/h 27.4 km/h 44% 0.0 mm CLR
16:30 31.6 °C 17.8 °C 1015.9 hPa SE 14.5 km/h 24.1 km/h 44% 0.0 mm CLR
16:35 31.8 °C 17.7 °C 1015.9 hPa ESE 14.5 km/h 20.9 km/h 43% 0.0 mm CLR
16:40 31.9 °C 17.4 °C 1015.9 hPa ESE 12.9 km/h 20.9 km/h 42% 0.0 mm CLR
16:45 31.6 °C 17.1 °C 1015.9 hPa ESE 12.9 km/h 22.5 km/h 42% 0.0 mm CLR
16:50 31.7 °C 17.2 °C 1015.7 hPa ESE 12.9 km/h 19.3 km/h 42% 0.0 mm CLR
16:55 31.7 °C 16.8 °C 1015.7 hPa ESE 12.9 km/h 25.7 km/h 41% 0.0 mm CLR
17:00 31.4 °C 16.6 °C 1015.7 hPa ESE 14.5 km/h 22.5 km/h 41% 0.0 mm CLR
17:05 31.4 °C 16.6 °C 1015.7 hPa ESE 14.5 km/h 25.7 km/h 41% 0.0 mm CLR
17:10 31.3 °C 16.8 °C 1015.7 hPa ESE 14.5 km/h 24.1 km/h 42% 0.0 mm CLR
17:15 31.3 °C 16.8 °C 1015.7 hPa ESE 14.5 km/h 24.1 km/h 42% 0.0 mm CLR
17:20 31.3 °C 16.8 °C 1015.6 hPa ESE 12.9 km/h 22.5 km/h 42% 0.0 mm CLR
17:25 31.2 °C 16.8 °C 1015.6 hPa ESE 12.9 km/h 27.4 km/h 42% 0.0 mm CLR
17:30 31.2 °C 16.8 °C 1015.6 hPa ESE 14.5 km/h 20.9 km/h 42% 0.0 mm CLR
17:35 31.1 °C 16.3 °C 1015.6 hPa East 14.5 km/h 24.1 km/h 41% 0.0 mm CLR
17:40 31.2 °C 16.4 °C 1015.6 hPa ESE 11.3 km/h 19.3 km/h 41% 0.0 mm CLR
17:45 31.2 °C 15.6 °C 1015.6 hPa ESE 11.3 km/h 25.7 km/h 39% 0.0 mm CLR
17:50 31.1 °C 16.7 °C 1015.7 hPa ESE 11.3 km/h 20.9 km/h 42% 0.0 mm CLR
17:55 31.1 °C 16.7 °C 1015.7 hPa ESE 11.3 km/h 17.7 km/h 42% 0.0 mm CLR
18:00 30.9 °C 16.5 °C 1015.7 hPa East 9.7 km/h 19.3 km/h 42% 0.0 mm CLR
18:05 30.8 °C 16.8 °C 1015.8 hPa East 9.7 km/h 19.3 km/h 43% 0.0 mm CLR
18:10 30.8 °C 16.0 °C 1015.8 hPa ESE 9.7 km/h 19.3 km/h 41% 0.0 mm CLR
18:15 30.7 °C 16.3 °C 1015.8 hPa ESE 9.7 km/h 20.9 km/h 42% 0.0 mm CLR
18:20 30.7 °C 16.3 °C 1015.8 hPa ESE 11.3 km/h 16.1 km/h 42% 0.0 mm CLR
18:25 30.7 °C 16.7 °C 1015.8 hPa ESE 11.3 km/h 16.1 km/h 43% 0.0 mm CLR
18:30 30.6 °C 16.2 °C 1015.8 hPa ESE 9.7 km/h 14.5 km/h 42% 0.0 mm CLR
18:35 30.6 °C 16.6 °C 1015.8 hPa ESE 9.7 km/h 14.5 km/h 43% 0.0 mm CLR
18:40 30.6 °C 16.6 °C 1015.8 hPa ESE 8.0 km/h 16.1 km/h 43% 0.0 mm CLR
18:45 30.6 °C 16.6 °C 1015.8 hPa ESE 8.0 km/h 16.1 km/h 43% 0.0 mm CLR
18:50 30.4 °C 17.1 °C 1015.8 hPa ESE 11.3 km/h 16.1 km/h 45% 0.0 mm CLR
18:55 30.4 °C 17.2 °C 1015.8 hPa ESE 11.3 km/h 16.1 km/h 45% 0.0 mm CLR
19:00 30.3 °C 17.1 °C 1015.8 hPa ESE 9.7 km/h 16.1 km/h 45% 0.0 mm CLR
19:05 30.3 °C 17.1 °C 1015.8 hPa ESE 9.7 km/h 14.5 km/h 45% 0.0 mm CLR
19:10 30.3 °C 17.4 °C 1015.8 hPa ESE 9.7 km/h 14.5 km/h 46% 0.0 mm CLR
19:15 30.2 °C 17.7 °C 1015.8 hPa East 9.7 km/h 16.1 km/h 47% 0.0 mm CLR
19:20 30.1 °C 17.6 °C 1015.7 hPa ENE 9.7 km/h 12.9 km/h 47% 0.0 mm CLR
19:25 30.0 °C 17.4 °C 1015.7 hPa East 9.7 km/h 14.5 km/h 47% 0.0 mm CLR
19:30 29.9 °C 18.1 °C 1015.7 hPa ENE 8.0 km/h 11.3 km/h 49% 0.0 mm CLR
19:35 29.7 °C 17.8 °C 1015.5 hPa ENE 8.0 km/h 14.5 km/h 49% 0.0 mm CLR
19:40 29.4 °C 17.9 °C 1015.5 hPa NE 9.7 km/h 19.3 km/h 50% 0.0 mm CLR
19:45 29.3 °C 18.1 °C 1015.5 hPa NE 9.7 km/h 16.1 km/h 51% 0.0 mm CLR
19:50 29.3 °C 18.4 °C 1015.6 hPa NE 9.7 km/h 14.5 km/h 52% 0.0 mm CLR
19:55 29.1 °C 18.6 °C 1015.6 hPa NE 9.7 km/h 14.5 km/h 53% 0.0 mm CLR
20:00 29.0 °C 18.5 °C 1015.6 hPa NE 8.0 km/h 14.5 km/h 53% 0.0 mm CLR
20:05 28.9 °C 18.3 °C 1015.7 hPa NE 8.0 km/h 9.7 km/h 53% 0.0 mm CLR
20:10 28.9 °C 18.3 °C 1015.7 hPa ENE 8.0 km/h 11.3 km/h 53% 0.0 mm CLR
20:15 28.8 °C 18.6 °C 1015.7 hPa ENE 8.0 km/h 14.5 km/h 54% 0.0 mm CLR
20:20 28.7 °C 18.8 °C 1015.8 hPa ENE 8.0 km/h 14.5 km/h 55% 0.0 mm CLR
20:25 28.5 °C 18.9 °C 1015.8 hPa ENE 8.0 km/h 16.1 km/h 56% 0.0 mm CLR
20:30 28.3 °C 18.9 °C 1015.8 hPa NE 9.7 km/h 17.7 km/h 57% 0.0 mm CLR
20:35 28.2 °C 18.8 °C 1015.8 hPa NE 9.7 km/h 14.5 km/h 57% 0.0 mm CLR
20:40 27.9 °C 18.9 °C 1015.8 hPa NE 9.7 km/h 11.3 km/h 58% 0.0 mm CLR
20:45 27.9 °C 18.9 °C 1015.8 hPa ENE 9.7 km/h 9.7 km/h 58% 0.0 mm CLR
20:50 27.8 °C 19.1 °C 1015.9 hPa ENE 8.0 km/h 14.5 km/h 59% 0.0 mm CLR
20:55 27.6 °C 19.1 °C 1015.9 hPa NE 8.0 km/h 14.5 km/h 60% 0.0 mm CLR
21:00 27.4 °C 19.2 °C 1015.9 hPa NE 9.7 km/h 16.1 km/h 61% 0.0 mm CLR
21:05 27.3 °C 19.4 °C 1016.0 hPa NE 9.7 km/h 14.5 km/h 62% 0.0 mm CLR
21:10 27.1 °C 19.2 °C 1016.0 hPa ENE 8.0 km/h 12.9 km/h 62% 0.0 mm CLR
21:15 26.9 °C 19.3 °C 1016.0 hPa ENE 8.0 km/h 14.5 km/h 63% 0.0 mm CLR
21:20 26.8 °C 19.4 °C 1016.1 hPa NE 9.7 km/h 14.5 km/h 64% 0.0 mm CLR
21:25 26.7 °C 19.6 °C 1016.1 hPa NE 9.7 km/h 12.9 km/h 65% 0.0 mm CLR
21:30 26.6 °C 19.5 °C 1016.1 hPa NE 9.7 km/h 12.9 km/h 65% 0.0 mm CLR
21:35 26.6 °C 19.7 °C 1016.2 hPa NE 9.7 km/h 14.5 km/h 66% 0.0 mm CLR
21:40 26.4 °C 19.6 °C 1016.2 hPa NNE 9.7 km/h 14.5 km/h 66% 0.0 mm CLR
21:45 26.3 °C 19.7 °C 1016.2 hPa NE 9.7 km/h 14.5 km/h 67% 0.0 mm CLR
21:50 26.1 °C 19.5 °C 1016.4 hPa NE 9.7 km/h 14.5 km/h 67% 0.0 mm CLR
21:55 26.1 °C 19.7 °C 1016.4 hPa NE 9.7 km/h 12.9 km/h 68% 0.0 mm CLR
22:00 26.0 °C 19.6 °C 1016.4 hPa NE 9.7 km/h 12.9 km/h 68% 0.0 mm CLR
22:05 26.0 °C 19.6 °C 1016.5 hPa NE 9.7 km/h 11.3 km/h 68% 0.0 mm CLR
22:10 26.0 °C 19.6 °C 1016.5 hPa NE 8.0 km/h 12.9 km/h 68% 0.0 mm CLR
22:15 25.9 °C 19.6 °C 1016.5 hPa NE 8.0 km/h 14.5 km/h 68% 0.0 mm CLR
22:20 25.8 °C 19.7 °C 1016.5 hPa NE 9.7 km/h 14.5 km/h 69% 0.0 mm CLR
22:25 25.7 °C 19.6 °C 1016.5 hPa NE 9.7 km/h 11.3 km/h 69% 0.0 mm CLR
22:30 25.7 °C 19.6 °C 1016.5 hPa NE 8.0 km/h 9.7 km/h 69% 0.0 mm CLR
22:35 25.6 °C 19.7 °C 1016.6 hPa NE 8.0 km/h 12.9 km/h 70% 0.0 mm CLR
22:40 25.5 °C 19.6 °C 1016.6 hPa NE 8.0 km/h 11.3 km/h 70% 0.0 mm CLR
22:45 25.4 °C 19.8 °C 1016.6 hPa North 8.0 km/h 9.7 km/h 71% 0.0 mm CLR
22:50 25.3 °C 19.7 °C 1016.6 hPa NNW 8.0 km/h 9.7 km/h 71% 0.0 mm CLR
22:55 25.3 °C 19.7 °C 1016.6 hPa NNW 8.0 km/h 9.7 km/h 71% 0.0 mm CLR
23:00 25.3 °C 19.7 °C 1016.6 hPa North 3.2 km/h 8.0 km/h 71% 0.0 mm CLR
23:05 25.3 °C 19.9 °C 1016.9 hPa NNW 3.2 km/h 4.8 km/h 72% 0.0 mm CLR
23:10 25.3 °C 19.9 °C 1016.9 hPa NNW 1.6 km/h 8.0 km/h 72% 0.0 mm CLR
23:15 25.3 °C 19.9 °C 1016.9 hPa North 1.6 km/h 9.7 km/h 72% 0.0 mm CLR
23:20 25.2 °C 19.8 °C 1016.8 hPa NE 4.8 km/h 9.7 km/h 72% 0.0 mm CLR
23:25 25.2 °C 19.8 °C 1016.8 hPa NE 4.8 km/h 9.7 km/h 72% 0.0 mm CLR
23:30 25.1 °C 19.9 °C 1016.8 hPa NE 8.0 km/h 9.7 km/h 73% 0.0 mm CLR
23:35 25.1 °C 19.9 °C 1016.7 hPa NE 8.0 km/h 8.0 km/h 73% 0.0 mm CLR
23:40 25.1 °C 19.9 °C 1016.7 hPa ENE 3.2 km/h 8.0 km/h 73% 0.0 mm CLR
23:45 25.1 °C 19.9 °C 1016.7 hPa East 3.2 km/h 8.0 km/h 73% 0.0 mm CLR
23:50 24.9 °C 19.7 °C 1016.5 hPa East 3.2 km/h 8.0 km/h 73% 0.0 mm CLR
23:55 24.9 °C 19.9 °C 1016.5 hPa East 3.2 km/h 4.8 km/h 74% 0.0 mm CLR
Murcia-Puente Tocinos, España
Compliments of Weather Underground - 2.75 mb

La estación de MeteoMurcia.com, publica sus datos en los siguientes proyectos:

Weather Underground PWS IMURCIAP2 Meteoclimatic www.awekas.at

W3Counter
Web Analytics